Theta_e
279 279 280 280 280 282 284 283 285 287 288 290 291 293 294 297 297 298 300 302 301 297 299 299 300 305 308 314 319 319 318 318
279 280 280 280 279 280 281 282 284 285 286 288 289 291 292 294 296 297 298 298 299 296 296 298 298 299 304 307 316 315 313 311
279 279 279 278 278 278 280 281 283 284 285 287 288 289 290 291 293 295 295 295 295 295 294 295 296 297 300 300 305 303 299 299
278 277 278 277 277 277 279 280 282 283 284 285 286 287 288 289 291 292 293 292 293 293 292 292 292 293 293 295 296 295 295 296
275 276 276 276 276 277 277 279 281 282 283 283 284 286 287 288 289 290 291 290 289 289 289 290 290 290 289 290 290 289 289 290
272 274 274 274 275 276 277 278 279 281 281 282 283 285 286 286 287 287 287 287 287 287 287 288 289 289 288 288 288 287 286 286
268 272 272 273 274 275 277 277 279 279 280 281 282 283 284 285 285 285 285 285 286 285 285 285 286 288 289 286 287 286 285 284
265 269 271 272 274 275 276 277 278 278 279 281 281 282 283 283 283 283 284 284 284 284 284 284 285 286 286 285 284 284 283 283
266 265 269 268 273 276 276 276 277 278 279 281 281 281 282 282 282 282 283 283 283 283 284 284 284 286 285 284 283 282 282 282
266 266 269 269 272 276 275 276 276 277 279 281 282 282 282 282 282 282 282 282 282 283 283 283 284 286 285 283 282 282 281 282
274 273 271 272 274 275 273 274 275 276 279 281 282 282 281 281 282 282 282 282 283 283 283 284 284 286 285 283 282 280 280 281
273 272 270 271 273 273 273 272 274 277 280 280 281 282 282 282 282 281 281 281 281 281 282 283 284 285 286 285 282 281 280 280
272 271 270 271 271 271 270 271 273 276 278 279 280 281 281 281 281 281 280 279 279 279 279 280 282 284 286 285 284 283 280 279
271 271 269 269 269 269 268 270 272 274 275 277 278 279 279 279 279 279 279 278 277 276 275 275 277 279 282 284 284 283 280 280
266 267 267 266 268 266 266 268 270 272 276 276 276 276 276 277 277 277 276 275 275 275 273 273 274 275 277 278 279 280 279 279
265 265 263 263 262 261 265 266 269 271 275 277 275 275 276 276 276 276 277 275 272 271 272 270 272 276 279 278 277 279 278 274
265 264 263 262 262 262 263 265 267 269 270 275 277 276 274 273 275 279 279 279 279 279 275 274 278 279 278 279 279 279 281 267
266 265 262 261 261 259 260 262 264 267 269 271 274 275 275 273 271 268 274 277 278 278 278 278 278 277 277 276 277 278 273 264
264 262 261 259 259 259 257 258 259 260 263 264 264 266 268 272 273 271 266 263 262 272 274 276 276 276 275 272 267 260 263 258
260 258 258 258 261 258 257 259 258 261 261 262 262 262 264 265 266 265 261 259 257 259 265 264 272 272 271 269 258 257 256 254
Wind_Speed
11 13 12 13 13 14 13 15 15 15 12 9 9 7 7 6 7 7 6 5 4 3 4 5 6 8 4 9 13 12 8 8
10 10 12 13 13 13 13 14 12 11 12 11 8 7 6 5 4 3 4 3 3 3 4 4 5 6 7 7 12 11 8 6
9 11 11 12 12 13 13 13 12 12 11 10 9 8 6 5 5 4 3 3 3 4 4 3 4 5 4 3 6 10 9 6
10 10 11 11 11 12 12 13 12 12 10 9 8 7 6 5 5 3 1 3 3 3 3 2 4 3 3 4 2 11 10 10
9 10 10 11 11 11 11 11 11 10 9 8 7 7 5 4 3 2 3 4 3 3 3 2 5 2 2 8 6 14 12 11
10 11 10 12 13 12 11 12 12 10 8 7 7 6 5 4 4 5 5 6 4 3 5 6 7 3 7 7 2 15 16 14
8 10 11 12 12 12 12 12 11 10 9 7 7 6 6 6 7 8 7 8 7 9 9 10 7 9 14 14 7 16 16 16
5 8 8 10 11 11 11 11 11 11 10 9 7 8 8 8 9 9 10 10 10 11 12 12 11 18 22 13 9 13 13 17
4 5 7 5 10 11 9 10 10 12 12 10 8 9 9 11 11 11 11 11 11 12 13 14 13 25 26 18 10 14 16 15
3 1 6 5 7 8 9 10 12 12 12 11 10 10 10 11 11 11 12 12 12 12 17 13 14 22 16 10 7 16 18 15
5 2 4 8 8 7 9 10 11 12 11 11 11 12 12 11 11 10 11 12 11 15 14 15 14 20 16 8 7 13 12 14
3 4 5 6 7 7 8 9 9 10 9 10 10 10 9 10 9 9 10 12 13 13 12 15 12 14 20 15 8 10 11 11
2 3 4 5 5 4 5 8 7 7 7 8 9 8 7 9 8 9 9 9 10 11 10 9 9 16 19 20 20 16 11 11
2 2 3 4 4 3 5 6 6 6 6 5 7 8 8 9 8 7 7 7 8 8 8 8 9 9 19 19 21 21 13 9
3 0 1 2 3 1 4 5 4 5 5 5 8 9 9 7 7 6 6 7 6 6 7 6 6 6 7 7 6 13 11 13
5 4 4 1 1 2 3 4 2 3 3 6 6 7 7 8 6 7 8 7 5 5 4 3 4 6 9 6 4 5 9 7
5 4 4 4 3 1 2 2 2 3 2 2 5 5 4 5 6 17 16 17 17 16 8 3 11 13 13 12 9 8 10 6
8 6 5 4 3 3 0 1 3 4 3 2 3 3 4 3 4 4 8 16 15 16 16 16 13 12 11 11 13 9 9 4
6 6 6 5 5 4 2 3 3 3 3 3 2 2 2 2 4 3 2 2 3 9 11 13 14 13 9 9 8 5 7 3
5 4 5 5 6 6 5 4 4 3 2 2 2 2 3 3 4 4 4 3 2 2 5 7 13 13 14 14 4 4 3 2
Wind_Direction
327 330 324 320 319 318 313 314 310 307 306 303 313 346 339 2 7 353 343 356 354 337 284 279 280 278 215 252 206 191 184 175
326 323 322 321 324 321 322 316 315 313 311 311 320 332 342 358 332 328 325 341 326 301 281 275 290 289 284 280 203 192 171 165
328 331 325 327 325 323 323 322 320 317 317 319 326 335 340 335 322 324 339 346 331 314 314 297 300 302 268 273 162 140 127 116
336 333 333 331 329 328 328 324 323 321 318 323 329 329 325 318 309 300 85 33 359 360 352 336 14 326 355 61 88 108 113 113
328 332 337 331 331 332 332 328 325 323 327 330 329 325 321 328 342 28 80 79 42 28 30 329 50 5 160 82 119 92 88 83
327 331 339 332 335 338 341 336 336 340 344 347 342 349 360 18 38 44 55 64 45 52 42 37 35 330 99 88 82 101 100 82
309 327 341 336 332 334 345 342 343 350 354 353 4 18 30 45 56 61 59 58 57 56 52 52 52 49 82 65 225 93 97 94
302 317 315 331 328 334 344 342 356 5 1 8 15 33 41 54 59 65 64 64 62 62 62 58 58 63 69 61 64 85 85 93
294 309 312 315 330 331 349 359 7 13 13 14 24 42 51 62 61 62 64 63 63 62 63 60 53 54 56 58 67 76 73 78
262 271 309 328 328 339 355 5 13 8 15 21 27 44 53 58 62 63 69 67 66 63 63 62 61 62 65 60 75 76 70 67
334 37 354 345 343 7 7 12 8 356 5 17 30 42 46 49 53 62 69 70 68 66 60 59 61 64 71 63 72 76 74 61
17 29 11 346 342 24 11 14 341 347 9 23 26 37 44 53 51 53 62 64 60 65 56 56 52 61 65 65 71 78 79 70
73 50 31 6 353 12 28 333 336 346 16 28 31 36 40 53 49 49 54 64 63 62 59 44 45 65 68 76 79 83 89 82
117 87 56 26 21 27 333 336 340 360 14 28 51 45 39 46 53 52 51 66 66 62 55 38 28 30 40 74 77 75 75 79
134 122 114 64 59 352 315 327 352 15 17 38 55 53 50 50 52 56 52 49 51 61 50 40 36 33 34 37 44 77 79 78
171 183 228 203 134 317 328 332 33 49 45 74 45 46 65 70 66 61 74 84 86 74 65 63 55 52 64 51 53 90 115 103
189 184 200 180 187 236 309 312 144 92 42 66 120 121 99 72 61 63 68 67 69 79 81 21 73 67 55 51 71 61 116 49
196 190 171 177 180 211 212 75 94 109 84 52 61 108 131 128 119 112 59 57 61 57 57 57 61 66 61 63 57 77 89 95
172 173 173 172 204 203 162 108 99 97 91 106 104 94 63 73 110 119 133 88 14 40 59 59 56 53 69 70 69 43 46 60
145 168 170 185 220 180 166 145 149 147 137 108 98 85 86 74 73 87 92 107 135 7 53 20 59 56 64 73 95 119 100 86